This is the latest recevied weather packets stored in our database for station/object IZ2XCK-13. If no packets are shown the sender has not sent any weather packets the latest 10 day(s).
| Time | Temp. | Humidity | Pressure | Rain* | Wind** | Luminosity | Snow |
|---|---|---|---|---|---|---|---|
| 1778072748 | 14.44° C | 91% | 1011.2 hPa | - | - | - | - |
| 1778071547 | 11.67° C | 99% | 1011.5 hPa | - | - | - | - |
| 1778070347 | 11.67° C | 98% | 1011.7 hPa | - | - | - | - |
| 1778069147 | 11.67° C | 99% | 1011.8 hPa | - | - | - | - |
| 1778067946 | 12.22° C | 94% | 1011.9 hPa | - | - | - | - |
| 1778066746 | 11.67° C | 99% | 1011.7 hPa | - | - | - | - |
| 1778065546 | 12.78° C | 78% | 1011.3 hPa | - | - | - | - |
| 1778064345 | 12.78° C | 83% | 1011.6 hPa | - | - | - | - |
| 1778063145 | 11.67° C | 99% | 1011.5 hPa | - | - | - | - |
| 1778061945 | 12.22° C | 99% | 1010.6 hPa | - | - | - | - |
| 1778060744 | 12.22° C | 99% | 1010.7 hPa | - | - | - | - |
| 1778059544 | 12.78° C | 94% | 1011.3 hPa | - | - | - | - |
| 1778058344 | 11.67° C | 89% | 1011.3 hPa | - | - | - | - |
| 1778057143 | 12.78° C | 97% | 1011.3 hPa | - | - | - | - |
| 1778055943 | 11.67° C | 99% | 1011.5 hPa | - | - | - | - |
| 1778054743 | 12.22° C | 99% | 1011.4 hPa | - | - | - | - |
| 1778053543 | 11.11° C | 99% | 1011.7 hPa | - | - | - | - |
| 1778052342 | 11.67° C | 99% | 1012 hPa | - | - | - | - |
| 1778051142 | 12.22° C | 96% | 1012.1 hPa | - | - | - | - |
| 1778049942 | 12.22° C | 97% | 1012.2 hPa | - | - | - | - |
| 1778048741 | 11.67° C | 99% | 1012.2 hPa | - | - | - | - |
| 1778047541 | 12.22° C | 91% | 1011.9 hPa | - | - | - | - |
| 1778046341 | 11.67° C | 96% | 1011.5 hPa | - | - | - | - |
| 1778045140 | 11.67° C | 99% | 1011.9 hPa | - | - | - | - |
| 1778043940 | 12.22° C | 99% | 1012.3 hPa | - | - | - | - |
* Rain since midnight (hover to see other rain measurements)
** Current wind speed in m/s (hover to see current wind gust speed)